Kezdőlap
METAR-TAF:

METAR-TAF

Repülőterek :

Beatrice Municipal Airport

Beatrice, Nebraska, Amerikai Egyesült Államok

földrajzi szélesség: 40-18N, földrajzi hosszúság: 096-45W, magasság: 403 m

Jelenlegi meteorológiai megfigyelések

A jelentés 32 perccel ezelõtt készült, 12:15 UTC
Déli szél 4 kt
Hőmérséklet 24°C
Páratartalom 94%
Légköri nyomás 1018 hPa
Látótávolság: 16.1 km
Derült ég

METAR: KBIE 281215Z AUTO 19004KT 10SM CLR 24/23 A3007 RMK AO2 T02420225

Idő: 07:47 (12:47 UTC)


TAF: hiányzik

Meteorológiai megfigyelések és előrejelzések több, mint 4000 repülőtéren (METAR és TAF jelentéseket).

A térképen piros és sárga pontok jelzik az elérhető meteorológiai állomásokat.

Mozgassa az egeret a pont fölött, hogy megjelenjen az állomás neve.

Azután kattintson az időjárási megfigyelések és előrejelzések megtekintéséhez.

A térkép megváltoztatása: kattintson a fekete keresztel jelölt zöld gombra ráközelítéshez, a vonallal jelölt zöld gombra távolításhoz, vagy a zöld nyilakra a szomszédos térképek eléréséhez.


METAR-TAF: